Vorticity
nan nan nan nan nan nan nan nan nan nan nan nan nan nan nan nan nan nan nan nan nan nan nan nan nan nan nan nan nan nan nan nan nan nan nan nan nan nan nan nan nan nan nan nan nan nan nan nan nan nan nan nan nan nan nan nan nan nan nan nan nan nan nan nan nan nan nan nan nan
nan 10 11 10 9 8 9 10 10 10 10 11 11 9 9 8 8 8 8 8 8 8 8 8 8 9 9 9 9 9 8 8 8 8 8 8 8 8 9 9 9 8 8 9 9 10 10 9 10 10 10 9 9 9 11 10 8 6 6 8 10 10 8 8 9 10 10 10 nan
nan 9 9 9 10 10 9 9 10 10 10 10 10 10 10 9 9 8 8 8 8 9 9 8 8 9 9 9 9 9 9 8 8 8 8 8 8 9 9 9 8 8 9 9 9 9 9 9 8 8 9 9 8 9 10 10 8 7 7 9 10 9 8 8 10 10 10 9 nan
nan 9 9 10 11 11 9 10 11 10 8 8 9 9 9 9 9 9 8 8 8 9 9 9 8 8 8 9 9 9 9 9 8 8 8 8 8 9 9 8 8 9 9 9 9 10 10 10 9 9 9 8 8 8 9 9 8 9 9 10 9 8 8 9 10 9 9 9 nan
nan 9 10 10 10 9 9 11 11 8 7 7 9 9 9 9 9 9 9 8 8 8 9 9 9 9 9 9 9 9 9 8 9 8 8 8 9 9 9 8 8 9 9 9 9 10 10 10 10 9 9 9 8 9 9 9 8 9 9 9 9 9 8 9 9 9 9 9 nan
nan 10 11 12 10 9 10 11 10 7 7 9 12 12 10 10 11 10 10 8 8 7 8 9 9 9 9 8 8 8 9 9 8 8 8 8 9 9 9 8 9 9 9 9 9 10 10 9 9 9 9 9 9 10 10 9 8 8 8 8 9 9 9 9 9 9 8 8 nan
nan 10 10 11 10 10 10 9 8 7 8 10 12 11 11 11 12 11 9 8 7 8 9 9 9 9 8 8 8 8 9 9 9 8 8 8 8 8 8 8 9 9 9 9 9 10 10 9 8 8 8 9 10 9 9 8 7 7 7 8 9 9 9 9 9 8 8 7 nan
nan 10 10 10 9 10 9 8 8 9 10 12 11 10 9 10 9 8 7 8 8 9 9 8 8 9 9 8 8 8 8 8 9 9 9 8 8 8 8 8 8 9 10 10 9 9 10 9 8 8 8 9 9 8 7 7 7 7 8 9 9 9 8 9 8 8 8 9 nan
nan 9 10 10 9 9 9 9 10 11 12 13 11 9 8 8 6 5 5 7 8 8 8 8 9 9 9 8 8 8 8 8 8 9 9 8 8 8 9 8 7 9 10 10 9 9 10 9 8 8 9 8 7 6 6 7 7 8 9 10 9 8 7 8 8 8 9 10 nan
nan 9 8 8 9 9 9 10 10 11 11 10 9 8 8 7 5 5 6 7 8 8 9 9 9 9 8 8 8 9 8 8 8 8 8 8 7 8 9 7 7 8 10 10 9 9 9 9 8 8 8 8 7 7 8 8 8 8 9 9 8 7 7 8 8 9 10 10 nan
nan 7 7 7 8 8 8 8 7 8 8 8 7 6 6 5 6 6 8 8 8 8 9 9 9 8 8 8 8 9 9 9 8 7 7 7 8 8 8 7 7 8 9 10 10 9 9 8 7 7 8 9 9 9 10 9 8 8 8 7 7 7 8 8 9 10 10 10 nan
nan 7 8 9 9 8 8 7 6 6 8 8 6 6 6 6 7 7 8 9 9 8 8 9 9 8 8 8 8 9 10 9 8 7 7 8 8 8 8 8 7 8 9 11 11 9 8 7 6 6 7 9 10 9 8 8 8 8 8 8 7 7 7 7 9 10 11 10 nan
nan 8 9 9 9 8 7 6 7 8 8 7 6 6 6 7 8 8 8 9 8 8 8 9 9 8 8 9 9 9 9 9 8 8 7 8 8 8 8 8 8 8 9 11 10 9 8 7 6 6 7 9 9 7 7 8 8 8 8 7 7 7 6 7 9 10 10 9 nan
nan 9 9 9 8 7 6 6 7 8 8 7 5 6 6 7 8 9 9 9 8 8 8 9 9 9 9 9 9 9 9 9 8 7 7 8 8 7 7 8 8 9 9 10 9 8 8 7 7 8 8 8 7 7 8 9 9 8 8 7 7 7 7 9 10 10 9 9 nan
nan 8 8 7 6 7 6 6 7 8 8 6 5 6 7 8 8 10 10 9 8 8 9 9 9 9 10 10 10 9 9 8 7 7 7 8 8 8 7 8 8 9 9 9 10 9 8 8 9 9 8 8 8 8 9 9 9 9 9 8 8 8 9 9 10 10 10 10 nan
nan 7 6 7 8 8 8 7 8 8 7 5 6 7 8 8 9 9 10 9 8 9 9 9 9 9 10 10 10 10 9 8 7 6 7 7 7 7 7 8 8 8 9 9 9 9 8 9 9 9 9 8 9 9 9 9 9 9 9 9 9 9 9 9 10 11 11 10 nan
nan 7 7 9 10 9 9 9 9 9 8 7 7 8 8 8 9 9 9 8 9 9 9 8 9 9 9 10 10 10 9 8 7 7 7 7 7 7 7 8 8 9 9 9 8 8 8 8 9 9 10 10 9 10 9 10 10 10 10 10 10 10 10 10 11 11 12 11 nan
nan 7 9 10 10 9 9 9 9 8 8 7 8 8 9 9 9 9 9 9 9 8 8 9 9 9 9 10 10 9 9 8 7 7 8 8 8 7 8 8 9 9 9 9 8 8 8 8 9 9 10 10 10 10 10 10 10 10 10 10 11 11 10 11 11 12 12 11 nan
nan 8 9 9 9 8 7 7 7 7 7 7 8 8 9 9 9 9 8 9 9 9 8 9 10 10 9 9 9 9 9 8 7 8 8 8 8 8 8 8 9 9 9 9 9 9 9 9 9 9 9 10 10 10 11 11 11 11 11 12 11 11 11 11 12 12 11 10 nan
nan 8 7 7 7 6 6 5 6 6 7 8 9 9 9 9 9 9 9 9 9 9 8 8 9 9 9 9 9 9 9 8 8 8 8 8 8 8 8 9 9 10 10 10 9 9 9 9 10 10 10 10 10 10 11 11 11 11 12 12 12 12 11 11 12 12 11 10 nan
nan 6 6 6 6 6 5 6 7 8 9 9 9 8 8 9 9 9 9 9 9 9 9 8 8 8 8 8 8 9 10 9 8 8 8 8 8 9 10 10 10 9 9 9 9 9 9 10 10 11 11 12 12 11 11 11 11 11 12 11 11 11 12 12 12 11 11 10 nan
nan 6 7 8 8 8 8 8 9 9 9 8 8 8 9 9 9 9 9 9 10 9 9 8 8 7 8 8 8 9 10 10 9 8 8 8 9 9 10 10 9 9 9 9 10 10 11 12 13 13 13 13 12 12 11 11 10 11 11 10 11 11 12 13 12 11 11 11 nan
nan 8 8 9 10 10 9 8 9 9 8 8 8 9 9 9 9 9 10 10 10 9 9 9 8 8 8 8 8 8 9 9 9 8 9 9 9 9 10 10 8 9 10 11 11 10 11 13 14 14 14 13 12 12 12 11 11 11 11 11 11 12 12 13 12 12 12 11 nan
nan 9 9 10 11 9 8 8 8 8 8 8 8 9 8 9 9 10 10 10 10 9 9 9 9 9 9 9 8 8 7 8 8 8 8 9 9 9 10 10 10 10 11 8 2 2 7 12 13 13 13 12 12 12 12 12 12 11 11 11 11 11 12 12 12 12 11 11 nan
nan 10 10 11 10 9 8 9 9 9 8 8 8 8 9 8 9 10 10 9 9 9 9 10 10 10 10 9 9 8 7 7 7 7 7 8 9 10 10 11 11 11 9 -2 -10 -4 5 11 14 14 13 12 12 12 12 13 12 11 11 10 10 10 11 11 12 12 13 13 nan
nan 9 10 10 10 9 9 9 9 8 8 8 8 9 9 9 9 9 9 9 9 9 9 9 9 10 10 9 8 8 8 8 7 7 7 7 8 9 10 10 11 9 3 -8 -8 1 6 9 12 16 18 16 11 12 12 12 12 11 11 11 10 9 9 9 11 13 14 16 nan
nan 9 9 10 10 9 8 8 9 8 9 9 9 9 9 9 9 9 9 8 9 10 10 9 8 9 10 9 7 8 9 9 8 8 8 8 8 9 9 10 10 5 -4 -10 -3 5 8 9 10 14 20 19 15 13 12 12 11 11 11 11 11 10 10 10 12 13 15 16 nan
nan 10 10 10 8 8 8 9 9 9 9 10 9 9 9 9 9 9 9 9 10 10 10 9 9 10 9 7 7 8 9 9 9 9 9 8 8 9 10 9 6 -0 -8 -8 2 7 9 9 9 11 16 21 22 16 13 11 11 11 11 11 12 12 12 14 14 13 12 12 nan
nan 11 10 8 7 7 8 9 9 9 9 9 9 9 9 9 9 8 9 9 9 9 10 10 10 9 8 7 8 9 9 9 9 9 8 8 8 9 8 8 5 -1 -7 -3 5 8 9 9 9 9 11 21 27 19 14 11 10 10 10 11 11 11 13 13 11 10 9 9 nan
nan 10 9 7 7 7 8 9 9 8 8 8 9 9 9 9 8 8 8 9 9 9 10 10 8 7 7 8 9 9 9 9 9 8 7 6 7 7 8 9 8 2 -4 -2 5 7 8 9 9 9 9 18 27 23 16 10 9 9 9 10 11 12 12 12 10 8 7 7 nan
nan 9 8 7 6 7 8 9 9 9 9 9 9 9 9 8 8 8 8 9 8 8 9 9 7 8 9 10 9 8 8 9 9 8 7 6 7 9 10 10 8 3 -5 -3 4 7 8 9 9 8 8 17 27 25 17 9 9 9 9 9 10 12 13 12 9 7 7 6 nan
nan 9 8 7 7 7 8 9 9 9 9 10 9 9 8 8 9 9 9 8 8 8 9 8 7 8 9 10 9 8 8 8 8 7 7 8 10 10 9 10 10 3 -6 -3 4 7 8 9 9 8 8 18 28 24 16 10 9 9 9 9 9 10 11 10 8 7 7 7 nan
nan 9 9 8 7 7 8 8 9 9 8 8 8 8 8 9 10 10 11 10 10 9 8 7 7 8 9 9 9 8 8 8 8 8 9 10 10 9 9 12 9 0 -7 -3 5 8 9 9 8 8 8 21 30 23 15 11 10 9 9 8 8 9 9 9 8 7 7 7 nan
nan 9 9 8 7 7 8 9 9 9 8 7 8 8 8 9 9 10 11 12 11 10 9 8 9 9 9 9 8 8 8 8 9 9 9 10 10 10 10 11 5 -5 -7 -1 6 8 9 9 8 8 10 24 31 21 13 10 9 7 7 7 8 8 8 9 8 7 7 8 nan
nan 8 7 7 7 8 8 8 9 9 8 7 7 8 9 9 9 9 9 10 11 10 10 9 10 10 10 10 8 7 7 8 9 8 9 9 10 10 10 10 3 -6 -6 1 6 8 8 8 8 9 16 28 28 18 11 10 9 8 7 8 9 9 9 8 8 8 8 9 nan
nan 8 7 7 7 7 8 8 9 8 8 7 8 8 9 10 10 10 9 10 10 10 10 9 9 9 9 9 9 7 7 8 8 8 8 9 10 10 10 9 4 -3 -3 1 5 7 8 8 8 12 22 30 24 14 10 10 9 9 9 10 10 9 9 10 10 9 10 11 nan
nan 9 8 7 7 7 7 8 8 8 8 7 8 8 8 10 11 11 10 10 8 9 9 10 8 8 7 8 7 7 7 8 8 8 8 9 10 9 9 10 7 2 -0 1 4 6 7 8 9 14 24 27 19 12 10 9 9 9 10 11 11 11 11 11 12 12 12 11 nan
nan 10 9 8 7 7 7 8 8 8 8 8 9 9 9 9 10 11 11 10 8 8 9 9 7 7 7 7 7 8 9 9 8 9 9 10 10 9 9 10 8 5 0 -1 2 5 7 8 9 13 22 23 16 12 10 9 8 9 10 11 10 11 12 12 12 13 13 9 nan
nan 10 10 8 7 7 7 8 8 8 8 8 9 10 10 10 10 10 11 10 9 8 8 7 7 6 6 7 9 10 10 10 10 10 10 10 7 6 7 10 8 5 -1 -2 2 5 7 8 8 11 20 23 18 14 10 9 8 8 9 9 10 11 13 11 11 13 13 9 nan
nan 10 10 9 8 7 7 7 8 8 8 8 8 10 10 11 10 10 11 11 10 8 7 7 6 6 6 8 10 10 9 10 11 10 10 8 5 5 10 13 9 6 2 2 3 5 6 7 8 11 21 24 18 14 11 9 8 8 8 9 10 11 13 13 14 14 14 12 nan
nan nan nan nan nan nan nan nan nan nan nan nan nan nan nan nan nan nan nan nan nan nan nan nan nan nan nan nan nan nan nan nan nan nan nan nan nan nan nan nan nan nan nan nan nan nan nan nan nan nan nan nan nan nan nan nan nan nan nan nan nan nan nan nan nan nan nan nan nan
CAPE
nan nan nan nan nan nan nan nan nan nan nan nan nan nan nan nan nan nan nan nan nan nan nan nan nan nan nan nan nan nan nan nan nan nan nan nan nan nan nan nan nan nan nan nan nan nan nan nan nan nan nan nan nan nan nan nan nan nan nan nan nan nan nan nan nan nan nan nan nan
nan nan nan nan nan nan nan nan nan nan nan nan nan nan nan nan nan nan nan nan nan nan nan nan nan nan nan nan nan nan nan nan nan nan nan nan nan nan nan nan nan nan nan nan nan nan nan nan nan nan nan nan nan nan nan nan nan nan nan nan nan nan nan nan nan nan nan nan nan
nan nan nan nan nan nan nan nan nan nan nan nan nan nan nan nan nan nan nan nan nan nan nan nan nan nan nan nan nan nan nan nan nan nan nan nan nan nan nan nan nan nan nan nan nan nan nan nan nan nan nan nan nan nan nan nan nan nan nan nan nan nan nan nan nan nan nan nan nan
nan nan nan nan nan nan nan nan nan nan nan nan nan nan nan nan nan nan nan nan nan nan nan nan nan nan nan nan nan nan nan nan nan nan nan nan nan nan nan nan nan nan nan nan nan nan nan nan nan nan nan nan nan nan nan nan nan nan nan nan nan nan nan nan nan nan nan nan nan
nan nan nan nan nan nan nan nan nan nan nan nan nan nan nan nan nan nan nan nan nan nan nan nan nan nan nan nan nan nan nan nan nan nan nan nan nan nan nan nan nan nan nan nan nan nan nan nan nan nan nan nan nan nan nan nan nan nan nan nan nan nan nan nan nan nan nan nan nan
nan nan nan nan nan nan nan nan nan nan nan nan nan nan nan nan nan nan nan nan nan nan nan nan nan nan nan nan nan nan nan nan nan nan nan nan nan nan nan nan nan nan nan nan nan nan nan nan nan nan nan nan nan nan nan nan nan nan nan nan nan nan nan nan nan nan nan nan nan
nan nan nan nan nan nan nan nan nan nan nan nan nan nan nan nan nan nan nan nan nan nan nan nan nan nan nan nan nan nan nan nan nan nan nan nan nan nan nan nan nan nan nan nan nan nan nan nan nan nan nan nan nan nan nan nan nan nan nan nan nan nan nan nan nan nan nan nan nan
nan nan nan nan nan nan nan nan nan nan nan nan nan nan nan nan nan nan nan nan nan nan nan nan nan nan nan nan nan nan nan nan nan nan nan nan nan nan nan nan nan nan nan nan nan nan nan nan nan nan nan nan nan nan nan nan nan nan nan nan nan nan nan nan nan nan nan nan nan
nan nan nan nan nan nan nan nan nan nan nan nan nan nan nan nan nan nan nan nan nan nan nan nan nan nan nan nan nan nan nan nan nan nan nan nan nan nan nan nan nan nan nan nan nan nan nan nan nan nan nan nan nan nan nan nan nan nan nan nan nan nan nan nan nan nan nan nan nan
nan nan nan nan nan nan nan nan nan nan nan nan nan nan nan nan nan nan nan nan nan nan nan nan nan nan nan nan nan nan nan nan nan nan nan nan nan nan nan nan nan nan nan nan nan nan nan nan nan nan nan nan nan nan nan nan nan nan nan nan nan nan nan nan nan nan nan nan nan
nan nan nan nan nan nan nan nan nan nan nan nan nan nan nan nan nan nan nan nan nan nan nan nan nan nan nan nan nan nan nan nan nan nan nan nan nan nan nan nan nan nan nan nan nan nan nan nan nan nan nan nan nan nan nan nan nan nan nan nan nan nan nan nan nan nan nan nan nan
nan nan nan nan nan nan nan nan nan nan nan nan nan nan nan nan nan nan nan nan nan nan nan nan nan nan nan nan nan nan nan nan nan nan nan nan nan nan nan nan nan nan nan nan nan nan nan nan nan nan nan nan nan nan nan nan nan nan nan nan nan nan nan nan nan nan nan nan nan
nan nan nan nan nan nan nan nan nan nan nan nan nan nan nan nan nan nan nan nan nan nan nan nan nan nan nan nan nan nan nan nan nan nan nan nan nan nan nan nan nan nan nan nan nan nan nan nan nan nan nan nan nan nan nan nan nan nan nan nan nan nan nan nan nan nan nan nan nan
nan nan nan nan nan nan nan nan nan nan nan nan nan nan nan nan nan nan nan nan nan nan nan nan nan nan nan nan nan nan nan nan nan nan nan nan nan nan nan nan nan nan nan nan nan nan nan nan nan nan nan nan nan nan nan nan nan nan nan nan nan nan nan nan nan nan nan nan nan
nan nan nan nan nan nan nan nan nan nan nan nan nan nan nan nan nan nan nan nan nan nan nan nan nan nan nan nan nan nan nan nan nan nan nan nan nan nan nan nan nan nan nan nan nan nan nan nan nan nan nan nan nan nan nan nan nan nan nan nan nan nan nan nan nan nan nan nan nan
nan nan nan nan nan nan nan nan nan nan nan nan nan nan nan nan nan nan nan nan nan nan nan nan nan nan nan nan nan nan nan nan nan nan nan nan nan nan nan nan nan nan nan nan nan nan nan nan nan nan nan nan nan nan nan nan nan nan nan nan nan nan nan nan nan nan nan nan nan
nan nan nan nan nan nan nan nan nan nan nan nan nan nan nan nan nan nan nan nan nan nan nan nan nan nan nan nan nan nan nan nan nan nan nan nan nan nan nan nan nan nan nan nan nan nan nan nan nan nan nan nan nan nan nan nan nan nan nan nan nan nan nan nan nan nan nan nan nan
nan nan nan nan nan nan nan nan nan nan nan nan nan nan nan nan nan nan nan nan nan nan nan nan nan nan nan nan nan nan nan nan nan nan nan nan nan nan nan nan nan nan nan nan nan nan nan nan nan nan nan nan nan nan nan nan nan nan nan nan nan nan nan nan nan nan nan nan nan
nan nan nan nan nan nan nan nan nan nan nan nan nan nan nan nan nan nan nan nan nan nan nan nan nan nan nan nan nan nan nan nan nan nan nan nan nan nan nan nan nan nan nan nan nan nan nan nan nan nan nan nan nan nan nan nan nan nan nan nan nan nan nan nan nan nan nan nan nan
nan nan nan nan nan nan nan nan nan nan nan nan nan nan nan nan nan nan nan nan nan nan nan nan nan nan nan nan nan nan nan nan nan nan nan nan nan nan nan nan nan nan nan nan nan nan nan nan nan nan nan nan nan nan nan nan nan nan nan nan nan nan nan nan nan nan nan nan nan
nan nan nan nan nan nan nan nan nan nan nan nan nan nan nan nan nan nan nan nan nan nan nan nan nan nan nan nan nan nan nan nan nan nan nan nan nan nan nan nan nan nan nan nan nan nan nan nan nan nan nan nan nan nan nan nan nan nan nan nan nan nan nan nan nan nan nan nan nan
nan nan nan nan nan nan nan nan nan nan nan nan nan nan nan nan nan nan nan nan nan nan nan nan nan nan nan nan nan nan nan nan nan nan nan nan nan nan nan nan nan nan nan nan nan nan nan nan nan nan nan nan nan nan nan nan nan nan nan nan nan nan nan nan nan nan nan nan nan
nan nan nan nan nan nan nan nan nan nan nan nan nan nan nan nan nan nan nan nan nan nan nan nan nan nan nan nan nan nan nan nan nan nan nan nan nan nan nan nan nan nan nan nan nan nan nan nan nan nan nan nan nan nan nan nan nan nan nan nan nan nan nan nan nan nan nan nan nan
nan nan nan nan nan nan nan nan nan nan nan nan nan nan nan nan nan nan nan nan nan nan nan nan nan nan nan nan nan nan nan nan nan nan nan nan nan nan nan nan nan nan nan nan nan nan nan nan nan nan nan nan nan nan nan nan nan nan nan nan nan nan nan nan nan nan nan nan nan
nan nan nan nan nan nan nan nan nan nan nan nan nan nan nan nan nan nan nan nan nan nan nan nan nan nan nan nan nan nan nan nan nan nan nan nan nan nan nan nan nan nan nan nan nan nan nan nan nan nan nan nan nan nan nan nan nan nan nan nan nan nan nan nan nan nan nan nan nan
nan nan nan nan nan nan nan nan nan nan nan nan nan nan nan nan nan nan nan nan nan nan nan nan nan nan nan nan nan nan nan nan nan nan nan nan nan nan nan nan nan nan nan nan nan nan nan nan 0 0 nan nan nan nan nan nan nan nan nan nan nan nan nan nan nan nan nan nan nan
nan nan nan nan nan nan nan nan nan nan nan nan nan nan nan nan nan nan nan nan nan nan nan nan nan nan nan nan nan nan nan nan nan nan nan nan nan nan nan nan nan nan nan nan nan nan nan nan 0 0 0 nan nan nan nan nan nan nan nan nan nan nan nan nan nan nan nan nan nan
nan nan nan nan nan nan nan nan nan nan nan nan nan nan nan nan nan nan nan nan nan nan nan nan nan nan nan nan nan nan nan nan nan nan nan nan nan nan nan nan nan nan nan nan nan nan nan nan 0 0 1 nan nan nan nan nan nan nan nan nan nan nan nan nan nan nan nan nan nan
nan nan nan nan nan nan nan nan nan nan nan nan nan nan nan nan nan nan nan nan nan nan nan nan nan nan nan nan nan nan nan nan nan nan nan nan nan nan nan nan nan nan nan nan nan nan nan nan 0 0 1 2 nan nan nan nan nan nan nan nan nan nan nan nan nan nan nan nan nan
nan nan nan nan nan nan nan nan nan nan nan nan nan nan nan nan nan nan nan nan nan nan nan nan nan nan nan nan nan nan nan nan nan nan nan nan nan nan nan nan nan nan nan nan nan nan nan nan 0 0 1 4 nan nan nan nan nan nan nan nan nan nan nan nan nan nan nan nan nan
nan nan nan nan nan nan nan nan nan nan nan nan nan nan nan nan nan nan nan nan nan nan nan nan nan nan nan nan nan nan nan nan nan nan nan nan nan nan nan nan nan nan nan nan nan nan nan nan 0 0 1 6 0 nan nan nan nan nan nan nan nan nan nan nan nan nan nan nan nan
nan nan nan nan nan nan nan nan nan nan nan nan nan nan nan nan nan nan nan nan nan nan nan nan nan nan nan nan nan nan nan nan nan nan nan nan nan nan nan nan nan nan nan nan nan nan nan nan 0 0 1 8 2 nan nan nan nan nan nan nan nan nan nan nan nan nan nan nan nan
nan nan nan nan nan nan nan nan nan nan nan nan nan nan nan nan nan nan nan nan nan nan nan nan nan nan nan nan nan nan nan nan nan nan nan nan nan nan nan nan nan nan nan nan nan nan nan nan 0 0 2 9 0 nan nan nan nan nan nan nan nan nan nan nan nan nan nan nan nan
nan nan nan nan nan nan nan nan nan nan nan nan nan nan nan nan nan nan nan nan nan nan nan nan nan nan nan nan nan nan nan nan nan nan nan nan nan nan nan nan nan nan nan nan nan nan nan nan 0 0 3 12 nan nan nan nan nan nan nan nan nan nan nan nan nan nan nan nan nan
nan nan nan nan nan nan nan nan nan nan nan nan nan nan nan nan nan nan nan nan nan nan nan nan nan nan nan nan nan nan nan nan nan nan nan nan nan nan nan nan nan nan nan nan nan nan nan nan 0 0 4 9 nan nan nan nan nan nan nan nan nan nan nan nan nan nan nan nan nan
nan nan nan nan nan nan nan nan nan nan nan nan nan nan nan nan nan nan nan nan nan nan nan nan nan nan nan nan nan nan nan nan nan nan nan nan nan nan nan nan nan nan nan nan nan nan nan nan 0 0 6 1 nan nan nan nan nan nan nan nan nan nan nan nan nan nan nan nan nan
nan nan nan nan nan nan nan nan nan nan nan nan nan nan nan nan nan nan nan nan nan nan nan nan nan nan nan nan nan nan nan nan nan nan nan nan nan nan nan nan nan nan nan nan nan nan nan nan 1 1 6 nan nan nan nan nan nan nan nan nan nan nan nan nan nan nan nan nan nan
nan nan nan nan nan nan nan nan nan nan nan nan nan nan nan nan nan nan nan nan nan nan nan nan nan nan nan nan nan nan nan nan nan nan nan nan nan nan nan nan nan nan nan nan nan nan nan nan 3 3 7 nan nan nan nan nan nan nan nan nan nan nan nan nan nan nan nan nan nan
nan nan nan nan nan nan nan nan nan nan nan nan nan nan nan nan nan nan nan nan nan nan nan nan nan nan nan nan nan nan nan nan nan nan nan nan nan nan nan nan nan nan nan nan nan nan nan 1 5 5 12 0 nan nan nan nan nan nan nan nan nan nan nan nan nan nan nan nan 6
nan nan nan nan nan nan nan nan nan nan nan nan nan nan nan nan nan nan nan nan nan nan nan nan nan nan nan nan nan nan nan nan nan nan nan nan nan nan nan nan nan nan nan nan nan nan nan 2 7 7 15 3 nan nan nan nan nan nan nan nan nan nan nan nan nan nan nan nan 34
nan nan nan nan nan nan nan nan nan nan nan nan nan nan nan nan nan nan nan nan nan nan nan nan nan nan nan nan nan nan nan nan nan nan nan nan nan nan nan nan nan nan nan nan nan nan 0 5 10 10 19 2 nan nan nan nan nan nan nan nan nan nan nan nan nan nan nan nan nan